TimeAKST,TemperatureF,Dew PointF,Humidity,Sea Level PressureIn,VisibilityMPH,Wind Direction,Wind SpeedMPH,Gust SpeedMPH,PrecipitationIn,Events,Conditions,WindDirDegrees,DateUTC
12:16 AM,33.8,28.4,81,29.51,10.0,West,13.8,-,N/A,,Overcast,280,2011-11-27 09:16:00
12:36 AM,33.8,28.4,81,29.52,10.0,West,6.9,-,N/A,,Overcast,260,2011-11-27 09:36:00
12:56 AM,33.8,26.6,75,29.53,10.0,WSW,12.7,-,N/A,,Overcast,240,2011-11-27 09:56:00
1:16 AM,33.8,28.4,81,29.55,10.0,WSW,9.2,-,N/A,,Overcast,240,2011-11-27 10:16:00
1:36 AM,33.8,26.6,75,29.56,10.0,WSW,6.9,-,N/A,,Overcast,240,2011-11-27 10:36:00
1:56 AM,33.8,26.6,75,29.57,10.0,WSW,4.6,-,N/A,,Overcast,250,2011-11-27 10:56:00
2:16 AM,33.8,28.4,81,29.58,10.0,WSW,4.6,-,N/A,,Overcast,250,2011-11-27 11:16:00
2:36 AM,33.8,26.6,75,29.58,10.0,West,3.5,-,N/A,,Overcast,260,2011-11-27 11:36:00
2:56 AM,33.8,28.4,81,29.59,10.0,SSE,3.5,-,N/A,,Overcast,160,2011-11-27 11:56:00
3:16 AM,33.8,28.4,81,29.59,10.0,Calm,Calm,-,N/A,,Overcast,0,2011-11-27 12:16:00
3:36 AM,33.8,28.4,81,29.60,10.0,Calm,Calm,-,N/A,,Overcast,0,2011-11-27 12:36:00
3:56 AM,33.8,28.4,81,29.61,10.0,Calm,Calm,-,N/A,,Overcast,0,2011-11-27 12:56:00
4:16 AM,33.8,28.4,81,29.62,10.0,SE,3.5,-,N/A,,Overcast,130,2011-11-27 13:16:00
4:36 AM,33.8,28.4,81,29.62,10.0,SSE,3.5,-,N/A,,Overcast,160,2011-11-27 13:36:00
4:56 AM,32.0,28.4,87,29.63,10.0,SSE,4.6,-,N/A,,Mostly Cloudy,160,2011-11-27 13:56:00
5:16 AM,32.0,28.4,87,29.64,10.0,SSE,3.5,-,N/A,,Partly Cloudy,150,2011-11-27 14:16:00
5:36 AM,32.0,28.4,87,29.65,10.0,South,3.5,-,N/A,,Mostly Cloudy,170,2011-11-27 14:36:00
5:56 AM,30.2,26.6,86,29.65,10.0,South,3.5,-,N/A,,Overcast,170,2011-11-27 14:56:00
6:16 AM,30.2,28.4,93,29.66,10.0,South,3.5,-,N/A,,Overcast,170,2011-11-27 15:16:00
6:36 AM,30.2,28.4,93,29.67,10.0,South,3.5,-,N/A,,Overcast,170,2011-11-27 15:36:00
6:56 AM,32.0,26.6,80,29.68,10.0,SSE,4.6,-,N/A,,Overcast,150,2011-11-27 15:56:00
7:16 AM,32.0,28.4,87,29.69,10.0,SE,4.6,-,N/A,,Overcast,140,2011-11-27 16:16:00
7:36 AM,30.2,26.6,86,29.70,10.0,SE,6.9,-,N/A,,Overcast,140,2011-11-27 16:36:00
7:56 AM,30.2,26.6,86,29.71,10.0,SE,4.6,-,N/A,,Mostly Cloudy,140,2011-11-27 16:56:00
8:16 AM,32.0,28.4,87,29.71,10.0,SE,6.9,-,N/A,,Mostly Cloudy,140,2011-11-27 17:16:00
8:36 AM,32.0,28.4,87,29.73,10.0,SE,3.5,-,N/A,,Mostly Cloudy,140,2011-11-27 17:36:00
8:56 AM,32.0,28.4,87,29.74,10.0,South,4.6,-,N/A,,Mostly Cloudy,180,2011-11-27 17:56:00
9:16 AM,33.8,28.4,81,29.75,10.0,SSE,3.5,-,N/A,,Mostly Cloudy,150,2011-11-27 18:16:00
9:36 AM,33.8,28.4,81,29.76,10.0,Calm,Calm,-,N/A,,Mostly Cloudy,0,2011-11-27 18:36:00
9:56 AM,33.8,28.4,81,29.78,10.0,SE,3.5,-,N/A,,Mostly Cloudy,140,2011-11-27 18:56:00
10:16 AM,33.8,30.2,87,29.79,10.0,South,4.6,-,N/A,,Mostly Cloudy,170,2011-11-27 19:16:00
10:36 AM,33.8,30.2,87,29.80,10.0,Calm,Calm,-,N/A,,Mostly Cloudy,0,2011-11-27 19:36:00
10:56 AM,33.8,30.2,87,29.81,5.0,Calm,Calm,-,N/A,,Overcast,0,2011-11-27 19:56:00
11:16 AM,33.8,28.4,81,29.82,5.0,Calm,Calm,-,N/A,,Overcast,0,2011-11-27 20:16:00
11:36 AM,33.8,30.2,87,29.84,5.0,Calm,Calm,-,N/A,,Overcast,0,2011-11-27 20:36:00
11:56 AM,33.8,30.2,87,29.84,7.0,Calm,Calm,-,N/A,,Overcast,0,2011-11-27 20:56:00
12:16 PM,33.8,28.4,81,29.85,7.0,SE,3.5,-,N/A,,Overcast,140,2011-11-27 21:16:00
12:36 PM,33.8,30.2,87,29.87,7.0,Calm,Calm,-,N/A,,Overcast,0,2011-11-27 21:36:00
12:56 PM,33.8,30.2,87,29.87,10.0,SSE,3.5,-,N/A,,Mostly Cloudy,160,2011-11-27 21:56:00
1:16 PM,33.8,28.4,81,29.88,10.0,ESE,6.9,-,N/A,,Mostly Cloudy,120,2011-11-27 22:16:00
1:36 PM,33.8,30.2,87,29.90,10.0,South,4.6,-,N/A,,Mostly Cloudy,190,2011-11-27 22:36:00
1:56 PM,33.8,30.2,87,29.90,4.0,South,4.6,-,N/A,,Overcast,180,2011-11-27 22:56:00
2:16 PM,33.8,30.2,87,29.91,4.0,Calm,Calm,-,N/A,,Overcast,0,2011-11-27 23:16:00
2:36 PM,33.8,30.2,87,29.92,4.0,East,5.8,-,N/A,,Overcast,90,2011-11-27 23:36:00
2:56 PM,33.8,30.2,87,29.93,10.0,ESE,5.8,-,N/A,,Overcast,120,2011-11-27 23:56:00
3:16 PM,35.6,30.2,81,29.94,10.0,East,9.2,-,N/A,,Overcast,100,2011-11-28 00:16:00
3:36 PM,33.8,28.4,81,29.94,10.0,Calm,Calm,-,N/A,,Overcast,0,2011-11-28 00:36:00
3:56 PM,33.8,28.4,81,29.95,10.0,SE,4.6,-,N/A,,Overcast,140,2011-11-28 00:56:00
4:16 PM,33.8,26.6,75,29.95,10.0,South,4.6,-,N/A,,Overcast,180,2011-11-28 01:16:00
4:36 PM,33.8,26.6,75,29.96,10.0,Calm,Calm,-,N/A,,Overcast,0,2011-11-28 01:36:00
4:56 PM,32.0,26.6,80,29.96,10.0,South,4.6,-,N/A,,Clear,180,2011-11-28 01:56:00
5:16 PM,33.8,26.6,75,29.97,10.0,ESE,3.5,-,N/A,,Clear,120,2011-11-28 02:16:00
5:36 PM,33.8,26.6,75,29.97,10.0,SSW,3.5,-,N/A,,Clear,200,2011-11-28 02:36:00
5:56 PM,33.8,26.6,75,29.98,10.0,SSE,5.8,-,N/A,,Overcast,160,2011-11-28 02:56:00
6:16 PM,33.8,26.6,75,29.98,10.0,SSE,3.5,-,N/A,,Overcast,150,2011-11-28 03:16:00
6:36 PM,33.8,26.6,75,29.96,10.0,SE,12.7,-,N/A,,Overcast,130,2011-11-28 03:36:00
6:56 PM,35.6,28.4,75,29.97,10.0,SW,4.6,-,N/A,,Overcast,220,2011-11-28 03:56:00
7:16 PM,35.6,26.6,70,29.97,10.0,SE,3.5,-,N/A,,Overcast,130,2011-11-28 04:16:00
7:36 PM,35.6,26.6,70,29.98,10.0,SSE,5.8,-,N/A,,Overcast,150,2011-11-28 04:36:00
7:56 PM,35.6,26.6,70,29.98,10.0,SE,6.9,-,N/A,,Overcast,140,2011-11-28 04:56:00
8:16 PM,35.6,28.4,75,29.97,10.0,SE,8.1,-,N/A,,Overcast,140,2011-11-28 05:16:00
8:36 PM,35.6,28.4,75,29.96,10.0,ESE,18.4,25.3,N/A,,Overcast,120,2011-11-28 05:36:00
8:56 PM,35.6,30.2,81,29.95,10.0,ESE,19.6,25.3,N/A,,Overcast,110,2011-11-28 05:56:00
9:16 PM,35.6,30.2,81,29.95,10.0,ESE,18.4,25.3,N/A,,Overcast,110,2011-11-28 06:16:00
9:36 PM,35.6,30.2,81,29.96,10.0,ESE,17.3,-,N/A,,Overcast,120,2011-11-28 06:36:00
9:56 PM,33.8,28.4,81,29.96,10.0,ESE,19.6,24.2,N/A,,Overcast,120,2011-11-28 06:56:00
10:16 PM,33.8,28.4,81,29.95,10.0,ESE,18.4,-,N/A,,Overcast,120,2011-11-28 07:16:00
10:36 PM,33.8,30.2,87,29.95,10.0,ESE,21.9,26.5,N/A,,Overcast,120,2011-11-28 07:36:00
10:56 PM,33.8,30.2,87,29.94,10.0,ESE,21.9,27.6,N/A,,Overcast,120,2011-11-28 07:56:00
11:16 PM,33.8,30.2,87,29.93,5.0,ESE,21.9,29.9,N/A,,Overcast,120,2011-11-28 08:16:00
11:36 PM,33.8,28.4,81,29.92,5.0,ESE,20.7,27.6,N/A,,Overcast,120,2011-11-28 08:36:00
11:56 PM,33.8,30.2,87,29.91,5.0,ESE,19.6,25.3,N/A,,Overcast,120,2011-11-28 08:56:00